www.pogodaiklimat.ru

Погода и климат >> Архив погоды >> Россия >> Красноярский край >> Назарово


ПОГОДА в Назарово

  • Прогноз погоды в Назарово
  • Монитор погоды в Назарово

АРХИВ ПОГОДЫ в Назарово

Время (UTC), дата Ветер
(напр.,м/с)
 
Видим.   Явления Облачность Т
(С)
Тd
(С)
f
(%)
Тe
(С)
Тes
(С)
Комфортность P
(гПа)
Po
(гПа)
Тmin
(С)
Tmax
(С)
R
(мм)
R24
(мм)
S
(см)
09 15.04 ЮЗ 1 10 км 9/6 600 м
[Cu med, cong Ci fib]
+1.8 -15.7 26 +1 +4 1013.6 982.0
12 15.04 С 2 10 км 9/3 600 м
[Cu hum Cs]
+1.5 -13.5 32 -1 -1 1012.1 980.5 +3.2 0.0
15 15.04 СВ 1 н/о 9/0
[Ac As Cs]
-1.2 -13.8 38 -2 -2 1010.8 978.9
18 15.04 СВ 2 н/о 9/0
[Ac As Cs]
-2.9 -13.7 43 -6 -6 1009.2 977.1
21 15.04 СВ 2 н/о 9/0
[Ac As Cs]
-4.8 -14.8 45 -8 -8 1007.5 975.2
00 16.04 СВ 1 10 км 9/0 2000 м
[Ac As Cs]
-5.1 -14.2 49 -7 -6 1007.3 975.0 -6.0
03 16.04 СВ 2 10 км 1/0
[Ci fib]
-0.3 -13.3 37 -3 +4 1007.3 975.6
06 16.04 СЗ 2 10 км ясно +3.4 -15.5 24 +2 +13 опасность
простуды
1008.1 976.8
09 16.04 СЗ 2 10 км ясно +4.8 -14.8 23 +3 +10 1008.7 977.5
12 16.04 З 1 10 км ясно +4.6 -14.6 23 +4 +5 1009.8 978.6 +6.0
15 16.04 СВ 1 н/о ясно -0.4 -11.7 42 -2 -2 1011.8 979.9
18 16.04 В 1 н/о ясно -3.5 -11.0 56 -5 -5 1012.8 980.6
21 16.04 В 1 н/о ясно -6.0 -11.3 66 -8 -8 1014.3 981.7
00 17.04 В 2 10 км 10/0
[Cs]
-5.8 -9.2 77 -10 -10 1014.6 982.0 -6.1
03 17.04 ЮЗ 3 10 км 9/0
[Ci]
+3.9 -4.8 53 +1 +5 1012.7 981.3
06 17.04 ЮЗ 5-10
{11}
10 км 9/6 600 м
[Cu med, cong Ci fib]
+7.8 -7.4 33 +5 +7 1010.4 979.5
09 17.04 ЮЗ 5-10
{12}
10 км 9/4 600 м
[Cu med, cong Cc]
+9.6 -12.6 19 +7 +9 1008.0 977.4
12 17.04 З 3
{11}
10 км 9/0 2000 м
[Ac und]
+5.2 -6.6 42 +3 +3 1007.4 976.4 +9.7
15 17.04 Ю 1 н/о 3/0
[Ci sp]
+0.3 -5.9 63 -1 -1 1007.2 975.6
18 17.04 В 2 н/о 10/0
[As op]
-0.1 -5.3 68 -3 -3 1004.8 973.2
21 17.04 В 2 н/о 10/0
[As op]
-0.4 -5.7 67 -4 -4 1001.2 969.7
00 18.04 ЮВ 3 10 км 9/3 600 м
[Cb cap Ac trans Ci sp]
+0.7 -3.9 71 -4 -3 995.8 964.5 -1.4
03 18.04 ЮЗ 6-11
{14}
4000 м дождь 10/0 600 м
[As op]
+4.4 +1.1 79 -1 -0 991.0 960.4
06 18.04 З 8-15
{18}
10 км в посл. час ливневой снег {дождь} 9/9 300 м
[Cb cap]
+0.9 -1.1 86 -6 -6 993.3 962.2
09 18.04 З 9-19
{21}
4000 м слаб. ливневой снег 8/8 600 м
[Cb cap]
0.0 -6.1 63 -7 -7 1002.3 970.7
12 18.04 З 7-14
{19}
10 км в посл. час ливневой снег 8/8 600 м
[Cb cap]
-3.7 -9.9 62 -11 -11 1008.6 976.5 +6.9 2
15 18.04 З 5-10
{18}
н/о {ливн. осадки} 4/4 600 м
[Cb cap]
-7.3 -13.7 60 -14 -14 1013.2 980.5
18 18.04 З 5-13
{17}
н/о слаб. ливневой снег 9/8 600 м
[Cb cap Ci fib]
-9.2 -13.2 73 -17 -17 1016.1 983.0
21 18.04 З 6-13
{14}
н/о слаб. снег 10/0 2000 м
[As op]
-7.5 -8.8 90 -16 -16 1017.9 985.1
00 19.04 З 8-16
{18}
4000 м слаб. снег 10/0 2000 м
[As op]
-6.5 -9.7 78 -16 -16 1021.4 988.5 -9.8 1 2
03 19.04 З 7-13
{16}
10 км позёмок {снег} 6/0 2000 м
[As op]
-4.1 -10.9 59 -12 -11 1024.7 992.0
06 19.04 З 7-12
{14}
10 км {снег, метель} 3/3 600 м
[Cu med, cong]
-0.4 -12.2 40 -7 -4 1025.3 993.0
09 19.04 З 4-10
{14}
10 км 8/8 600 м
[Cu med, cong]
+2.3 -12.5 33 -2 -1 1024.8 992.9
12 19.04 ЮЗ 4
{12}
10 км 8/8 600 м
[Cb cap]
+0.8 -12.4 37 -4 -3 1023.8 991.7 +2.3 0.0
15 19.04 З 1 н/о 3/3 600 м
[Cb cap]
-2.2 -10.3 54 -4 -4 1023.1 990.7
18 19.04 штиль 0 н/о ясно -4.6 -9.8 67 -5 -5 1021.9 989.3
21 19.04 СВ 1 н/о ясно -6.7 -9.1 83 -9 -9 1020.4 987.6
00 20.04 В 1 10 км 9/0
[Cs]
-7.3 -9.0 88 -10 -9 1018.8 985.9 -7.6
03 20.04 Ю 2 10 км 3/0
[Ci fib]
+1.0 -10.3 43 -2 +5 1016.5 984.7
06 20.04 В 2 10 км 8/0
[Ci sp]
+4.8 -12.1 28 +3 +13 опасность
простуды
1013.4 982.1
09 20.04 ЮЗ 2 10 км 9/0
[Cs]
+7.0 -10.7 27 +6 +12 1011.1 980.0
12 20.04 З 1 10 км 9/0
[Ci fib]
+6.4 -10.3 29 +6 +7 1009.9 978.9 +7.2
15 20.04 СЗ 1 н/о 9/0
[Ci fib]
+1.1 -8.7 48 0 0 1010.2 978.5
18 20.04 З 1 н/о 9/0
[Ci sp]
+0.2 -8.6 52 -1 -1 1010.0 978.3
21 20.04 З 1 н/о 9/0
[Cs]
-2.7 -7.8 68 -5 -5 1009.8 977.8
00 21.04 штиль 0 10 км 9/0 2000 м
[Ac As Cs]
-2.8 -6.5 76 -4 -3 1010.1 978.1 -3.5
03 21.04 З 3 10 км 9/0
[Ac As Ci fib]
+3.3 -6.4 49 0 +3 1008.9 977.6
06 21.04 З 5
{14}
10 км в посл. час ливневой снег 9/5 600 м
[Cb cap As op Ci fib]
+5.3 -3.9 51 +1 +3 1009.2 978.1
09 21.04 З 4
{18}
10 км в посл. час ливневой снег 9/8 600 м
[Cb cap As op Ci fib]
+3.5 -1.5 70 -1 -0 1011.0 979.6
12 21.04 СЗ 3
{11}
10 км {ливн. осадки} 9/9 600 м
[Cb cap]
+2.4 -8.0 46 -1 -1 1013.0 981.5 +6.4 0.3
15 21.04 СЗ 3 н/о 8/0
[As op]
-1.0 -10.2 50 -5 -5 1016.8 984.7
18 21.04 ЮЗ 1 н/о 8/0
[As op]
-5.9 -10.7 69 -8 -8 1020.1 987.3
21 21.04 З 1 н/о 8/0
[As op]
-7.1 -10.0 80 -9 -9 1022.3 989.3
00 22.04 З 1 10 км 8/4 600 м
[Cu hum Ac As]
-6.0 -9.9 74 -8 -8 1023.5 990.6 -7.5
03 22.04 З 2 10 км 3/3 600 м
[Cu hum]
-0.3 -12.0 41 -3 +2 1024.6 992.3
06 22.04 З 2 10 км 8/6 600 м
[Cu hum Ci fib]
+3.5 -12.4 30 +2 +6 1024.1 992.3

 

Местоположение метеостанции Назарово (Красноярский край, Россия): широта 56.03 долгота 90.32 высота над уровнем моря 256 м.

В архиве по умолчанию представлена погода в Назарово за последнюю неделю. Архивные данные за месяц целиком и за предыдущие месяцы, начиная с января 2011 года, Вы можете получить, выбрав интересующий диапазон дат из раскрывающегося списка и нажав кнопку "Ввод!".


*Определитесь, кто Вы:
робот инопланетянин человек

Внимание! Время в таблицах - всемирное. Для получения местного времени необходимо прибавить поправку, которая равна 7 ч.

Смотрите также архив погоды в соседних городах и на ближайших метеорологических станциях:

Погода в Ачинске (Красноярский край, Россия) (30 км)
Погода в Боготоле (Красноярский край, Россия) (51 км)
Погода в Большом Улуе (Красноярский край, Россия) (70 км)
Погода в Тюхтете (Красноярский край, Россия) (83 км)
Погода в Кемчуге (Красноярский край, Россия) (84 км)
Погода в Ужуре (Красноярский край, Россия) (87 км)
Погода в Шарыпово (Красноярский край, Россия) (89 км)
Погода в Светлолобово (Красноярский край, Россия) (108 км)
Погода в Балахте (Красноярский край, Россия) (111 км)
Погода в Тяжине (Кемеровская область, Россия) (112 км)

Пояснения к столбцам:

Ветер - указаны скорость ветра в м/с - средняя за 10 мин, порывы в срок и между сроками (в фигурных скобках) и направление, откуда дует ветер: С - северный, СВ - северо-восточный, В - восточный, ЮВ - юго-восточный, Ю - южный, ЮЗ - юго-западный, З - западный, СЗ - северо-западный.
Видимость - горизонтальная дальность видимости в метрах или километрах. При видимости от 1 до 10 км при отсутствии осадков обычно наблюдается дымка, при ухудшении видимости до 1 км и менее - туман. В сухую погоду видимость может ухудшаться дымом, пылью или мглою.
Явления - указаны атмосферные явления, наблюдавшиеся в срок или в последний час перед сроком; фигурными скобками обозначены явления, наблюдавшиеся между сроками (за 1-3 часа до срока); квадратными скобками обозначены град или гололедные отложения с указанием их диаметра в мм.
Облачность - указаны через наклонную черту общая и нижняя облачность в баллах и высота нижней границы облаков в метрах; квадратными скобками обозначены формы облаков: Ci - перистые, Cs - перисто-слоистые, Cc - перисто-кучевые, Ac - высококучевые, As - высокослоистые, Sc - слоисто-кучевые, Ns - слоисто-дождевые, Cu - кучевые, Cb - кучево-дождевые. Подробнее классификацию облаков см. в Атласе облаков (PDF).
T - Температура воздуха - температура, измеренная на высоте 2 м над землей.
Td - Температура точки росы - температура, при понижении до которой содержащийся в воздухе водяной пар достигнет насыщения.
f - Относительная влажность воздуха - влажноcть воздуха, измеренная на высоте 2 м над землей.
Te - Эффективная температура - температура, которую ощущает одетый по сезону человек в тени. Характеристика душности погоды. При расчете учитывается влияние влажности воздуха и скорости ветра на теплоощущения человека.
Tes - Эффективная температура на солнце - температура, которую ощущает человек, с поправкой на солнечный нагрев. Характеристика знойности погоды. Зависит от высоты солнца над горизонтом, облачности и скорости ветра. Ночью, в пасмурную погоду, а также при ветре 12 м/с и более поправка равна нулю.
P - Атмосферное давление - приведенное к уровню моря атмосферное давление.
Po - Атмосферное давление - измеренное на уровне метеостанции атмосферное давление.
Tmin - Минимальная температура - минимум температуры воздуха на высоте 2 м над землей.
Tmax - Максимальная температура - максимум температуры воздуха на высоте 2 м над землей.
R - Количество осадков - Количество выпавших осадков за период времени, мм. При наведении курсора мыши на число - период времени, за который выпало указанное количество осадков.
R24 - Количество осадков - Количество выпавших осадков за 24 часа, мм.
S - Снежный покров - Высота снежного покрова, см. При наведении курсора мыши на число - состояние снежного покрова и степень покрытия местности в баллах.